Weather History for Eagle, CO

Change the Weather History Date:

Sunday, October 14, 2012

  Actual Average Record
Temperature  
Mean Temperature 46 °F -  
Max Temperature 60 °F 63 °F 78 °F (1989)
Min Temperature 33 °F 27 °F 13 °F (1952)
Degree Days  
Heating Degree Days 18    
Moisture  
Dew Point 37 °F    
Average Humidity 79    
Maximum Humidity 100    
Minimum Humidity 31    
Precipitation  
Precipitation 0.00 in - - ()
Sea Level Pressure  
Sea Level Pressure 30.34 in    
Wind  
Wind Speed 2 mph (ESE)    
Max Wind Speed 14 mph    
Max Gust Speed 18 mph    
Visibility 10 miles    
Events      
Averages and records for this station are not official NWS values.
T = Trace of Precipitation, MM = Missing Value Source: NWS Daily Summary

Daily Weather History Graph

Daily Weather History Graph

Search for Another Location

Airport:

Trip Planner

Search our weather history database for the weather conditions in past years. The results will help you decide how hot, cold, wet, or windy it might be!

Date:

Astronomy

Oct. 14, 2012 Rise Set
Actual Time 7:17 AM MDT 6:29 PM MDT
Civil Twilight 6:50 AM MDT 6:56 PM MDT
Nautical Twilight 6:18 AM MDT 7:27 PM MDT
Astronomical Twilight 5:47 AM MDT 7:58 PM MDT
Moon 6:19 AM MDT (10/14) 5:50 PM MDT (10/14)
Length of Visible Light 12h 06m
Length of Day
11h 11m
Waning Crescent, 1% of the Moon is Illuminated
Oct 14
Waning Crescent
Oct 15
New
Oct 21
First Quarter
Oct 29
Full
Nov 6
Last Quarter

Hourly Weather History & Observations

Time (MDT) Temp. Windchill Dew Point Humidity Pressure Visibility Wind Dir Wind Speed Gust Speed Precip Events Conditions
12:15 AM 44.6 °F - 42.8 °F 93% 30.29 in 10.0 mi Calm Calm - N/A   Scattered Clouds
12:35 AM 44.6 °F 43.1 °F 42.8 °F 93% 30.30 in 10.0 mi NE 3.5 mph - N/A   Mostly Cloudy
12:55 AM 44.6 °F - 42.8 °F 93% 30.30 in 10.0 mi Calm Calm - N/A   Mostly Cloudy
1:15 AM 44.6 °F 43.1 °F 42.8 °F 93% 30.31 in 10.0 mi SE 3.5 mph - N/A   Mostly Cloudy
1:35 AM 44.6 °F - 42.8 °F 93% 30.32 in 10.0 mi Calm Calm - N/A   Overcast
1:55 AM 42.8 °F 39.3 °F 41.0 °F 93% 30.33 in 10.0 mi ENE 5.8 mph - N/A   Scattered Clouds
2:15 AM 42.8 °F 39.3 °F 41.0 °F 93% 30.33 in 10.0 mi East 5.8 mph - N/A   Clear
2:35 AM 41.0 °F 38.0 °F 41.0 °F 100% 30.33 in 10.0 mi ENE 4.6 mph - N/A   Partly Cloudy
2:55 AM 41.0 °F 38.0 °F 41.0 °F 100% 30.32 in 10.0 mi East 4.6 mph - N/A   Mostly Cloudy
3:15 AM 41.0 °F 39.0 °F 39.2 °F 93% 30.32 in 10.0 mi South 3.5 mph - N/A   Scattered Clouds
3:35 AM 41.0 °F - 39.2 °F 93% 30.32 in 10.0 mi Calm Calm - N/A   Clear
3:55 AM 39.2 °F - 37.4 °F 93% 30.32 in 10.0 mi Calm Calm - N/A   Scattered Clouds
4:15 AM 39.2 °F - 37.4 °F 93% 30.32 in 10.0 mi Calm Calm - N/A   Scattered Clouds
4:35 AM 39.2 °F - 39.2 °F 100% 30.33 in 10.0 mi Calm Calm - N/A   Scattered Clouds
4:55 AM 37.4 °F - 37.4 °F 100% 30.34 in 10.0 mi Calm Calm - N/A   Partly Cloudy
5:15 AM 37.4 °F - 35.6 °F 93% 30.35 in 10.0 mi Calm Calm - N/A   Clear
5:35 AM 37.4 °F - 37.4 °F 100% 30.35 in 10.0 mi Calm Calm - N/A   Clear
5:55 AM 37.4 °F 33.8 °F 37.4 °F 100% 30.36 in 10.0 mi East 4.6 mph - N/A   Clear
6:15 AM 35.6 °F - 35.6 °F 100% 30.38 in 10.0 mi Calm Calm - N/A   Clear
6:35 AM 35.6 °F - 35.6 °F 100% 30.38 in 10.0 mi Calm Calm - N/A   Clear
6:50 AM 35.6 °F - 35.6 °F 100% 30.38 in 10.0 mi Calm Calm - N/A   Partly Cloudy
6:55 AM 35.6 °F - 33.8 °F 93% 30.38 in 10.0 mi Calm Calm - N/A   Scattered Clouds
7:55 AM 33.8 °F - 33.8 °F 100% 30.40 in 10.0 mi Calm Calm - N/A   Partly Cloudy
8:50 AM 37.4 °F - 37.4 °F 100% 30.42 in 10.0 mi Calm Calm - N/A   Partly Cloudy
9:50 AM 42.8 °F - 39.2 °F 87% 30.42 in 10.0 mi Calm Calm - N/A   Partly Cloudy
10:50 AM 48.2 °F - 39.2 °F 71% 30.41 in 10.0 mi Calm Calm - N/A   Partly Cloudy
11:50 AM 51.8 °F - 39.2 °F 62% 30.39 in 10.0 mi Calm Calm - N/A   Scattered Clouds
12:50 PM 55.4 °F - 33.8 °F 44% 30.37 in 10.0 mi SSW 6.9 mph - N/A   Scattered Clouds
2:50 PM 59.0 °F - 30.2 °F 34% 30.32 in 10.0 mi South 8.1 mph - N/A   Partly Cloudy
3:50 PM 60.8 °F - 30.2 °F 31% 30.30 in 10.0 mi SSW 11.5 mph 17.3 mph N/A   Partly Cloudy
4:50 PM 60.8 °F - 30.2 °F 31% 30.29 in 10.0 mi SW 13.8 mph 18.4 mph N/A   Partly Cloudy
5:50 PM 59.0 °F - 30.2 °F 34% 30.29 in 10.0 mi West 6.9 mph - N/A   Partly Cloudy
6:50 PM 55.4 °F - 33.8 °F 44% 30.31 in 10.0 mi Calm Calm - N/A   Partly Cloudy
7:15 PM 53.6 °F - 33.8 °F 47% 30.32 in 10.0 mi Calm Calm - N/A   Clear
7:35 PM 51.8 °F - 33.8 °F 50% 30.32 in 10.0 mi Calm Calm - N/A   Clear
7:55 PM 50.0 °F - 35.6 °F 58% 30.32 in 10.0 mi ENE 4.6 mph - N/A   Clear
8:15 PM 48.2 °F - 35.6 °F 62% 30.32 in 10.0 mi Calm Calm - N/A   Clear
8:35 PM 46.4 °F 42.9 °F 37.4 °F 71% 30.33 in 10.0 mi East 6.9 mph - N/A   Clear
8:55 PM 44.6 °F 41.4 °F 37.4 °F 76% 30.33 in 10.0 mi East 5.8 mph - N/A   Clear
9:15 PM 44.6 °F 41.4 °F 35.6 °F 71% 30.33 in 10.0 mi SE 5.8 mph - N/A   Clear
9:35 PM 44.6 °F 42.2 °F 35.6 °F 71% 30.33 in 10.0 mi East 4.6 mph - N/A   Clear
9:55 PM 42.8 °F 40.1 °F 35.6 °F 76% 30.33 in 10.0 mi East 4.6 mph - N/A   Clear
10:15 PM 42.8 °F 40.1 °F 35.6 °F 76% 30.34 in 10.0 mi East 4.6 mph - N/A   Clear
10:35 PM 42.8 °F - 35.6 °F 76% 30.34 in 10.0 mi Calm Calm - N/A   Clear
10:55 PM 41.0 °F - 35.6 °F 81% 30.34 in 10.0 mi Calm Calm - N/A   Clear
11:15 PM 39.2 °F - 33.8 °F 81% 30.34 in 10.0 mi Calm Calm - N/A   Clear
11:35 PM 39.2 °F - 35.6 °F 87% 30.34 in 10.0 mi Calm Calm - N/A   Clear
11:55 PM 39.2 °F - 33.8 °F 81% 30.34 in 10.0 mi Calm Calm - N/A   Clear